User: anonymous   Login
Location: Newark
(41.9000°N, 12.4833°E)
Time: 08:01:41
(UTC+00:00)
Language:

PCSat - Orbit

View from above orbital plane
View from above orbital plane
View from above satellite
View from above satellite

Ground track
Ground track

The orbit data is extracted from the following two-line orbital elements,

1 26931U 01043C   19144.89083937 -.00000047 +00000-0 +13927-4 0  9993
2 26931 067.0524 067.6779 0006407 279.9847 080.0531 14.30542460921358
Epoch (UTC): 24 May 2019 21:22:48
Eccentricity: 0.0006407
inclination: 67.0524°
perigee height: 785 km
apogee height: 794 km
right ascension of ascending node: 67.6779°
argument of perigee: 279.9847°
revolutions per day: 14.30542460
mean anomaly at epoch: 80.0531°
orbit number at epoch: 92135

The dashed part of the orbit path shows where the satellite is in the earth's shadow,  

DLR